Weather History for KRNT - October, 2013

Change the Weather History Date:

Thursday, October 10, 2013

  Actual Average Record
Temperature  
Mean Temperature 52 °F -  
Max Temperature 59 °F 61 °F 68 °F (1996)
Min Temperature 46 °F 47 °F 39 °F (2006)
Degree Days  
Heating Degree Days 14    
Growing Degree Days 2 (Base 50)    
Moisture  
Dew Point 47 °F    
Average Humidity 85    
Maximum Humidity 96    
Minimum Humidity 62    
Precipitation  
Precipitation 0.04 in - - ()
Sea Level Pressure  
Sea Level Pressure 30.01 in    
Wind  
Wind Speed 2 mph (SSE)    
Max Wind Speed 6 mph    
Max Gust Speed -    
Visibility 9 miles    
Events Rain    
Averages and records for this station are not official NWS values.
T = Trace of Precipitation, MM = Missing Value Source: NWS Daily Summary

Daily Weather History Graph

Daily Weather History Graph

Search for Another Location

Airport or City:

Trip Planner

Search our weather history database for the weather conditions in past years. The results will help you decide how hot, cold, wet, or windy it might be!

Date:

Astronomy

Oct. 10, 2013 Rise Set
Actual Time 7:20 AM PDT 6:29 PM PDT
Civil Twilight 6:50 AM PDT 7:00 PM PDT
Nautical Twilight 6:14 AM PDT 7:36 PM PDT
Astronomical Twilight 5:38 AM PDT 8:11 PM PDT
Moon 1:32 PM PDT (10/10) 10:58 PM PDT (10/10)
Length of Visible Light 12h 10m
Length of Day
11h 08m
Waxing Crescent, 37% of the Moon is Illuminated
Oct 10
Waxing Crescent
Oct 11
First Quarter
Oct 18
Full
Oct 26
Last Quarter
Nov 3
New

Hourly Weather History & Observations

Time (PDT) Temp. Windchill Dew Point Humidity Pressure Visibility Wind Dir Wind Speed Gust Speed Precip Events Conditions
12:53 AM 48.0 °F - 45.0 °F 89% 29.99 in 9.0 mi Calm Calm - N/A   Overcast
1:53 AM 46.9 °F - 45.0 °F 93% 29.99 in 10.0 mi Calm Calm - N/A   Mostly Cloudy
2:53 AM 48.0 °F - 45.0 °F 89% 29.97 in 10.0 mi SE 4.6 mph - N/A   Overcast
3:53 AM 46.0 °F - 45.0 °F 96% 29.97 in 10.0 mi Calm Calm - N/A   Mostly Cloudy
4:53 AM 46.0 °F 44.8 °F 44.1 °F 93% 29.97 in 10.0 mi SE 3.5 mph - N/A   Overcast
5:53 AM 46.0 °F 44.8 °F 44.1 °F 93% 29.98 in 9.0 mi SE 3.5 mph - N/A   Overcast
6:53 AM 46.0 °F - 44.1 °F 93% 29.99 in 10.0 mi Calm Calm - N/A   Overcast
7:53 AM 46.9 °F - 44.1 °F 90% 29.99 in 9.0 mi SSE 4.6 mph - N/A   Overcast
8:41 AM 48.2 °F - 44.6 °F 87% 29.98 in 10.0 mi SSE 3.5 mph - N/A   Overcast
8:53 AM 48.0 °F - 44.1 °F 86% 29.99 in 10.0 mi Calm Calm - N/A   Overcast
9:03 AM 48.2 °F - 44.6 °F 87% 29.98 in 10.0 mi Calm Calm - N/A   Overcast
9:53 AM 50.0 °F - 44.1 °F 80% 30.00 in 10.0 mi Calm Calm - N/A   Overcast
10:53 AM 53.1 °F - 45.0 °F 74% 30.01 in 10.0 mi South 5.8 mph - N/A   Overcast
11:53 AM 55.9 °F - 46.0 °F 69% 30.00 in 10.0 mi SSE 3.5 mph - N/A   Overcast
12:53 PM 57.0 °F - 45.0 °F 64% 30.01 in 10.0 mi Calm Calm - N/A   Overcast
1:53 PM 57.9 °F - 45.0 °F 62% 30.00 in 10.0 mi Calm Calm - N/A   Mostly Cloudy
2:53 PM 57.9 °F - 46.0 °F 65% 30.01 in 10.0 mi Variable 4.6 mph - N/A   Overcast
3:53 PM 57.0 °F - 46.0 °F 67% 30.01 in 10.0 mi Calm Calm - N/A   Overcast
4:53 PM 55.0 °F - 50.0 °F 83% 30.03 in 4.0 mi South 5.8 mph - 0.00 in Rain Light Rain
5:53 PM 54.0 °F - 50.0 °F 86% 30.02 in 10.0 mi South 3.5 mph - 0.01 in   Overcast
6:53 PM 53.1 °F - 50.0 °F 89% 30.04 in 10.0 mi South 4.6 mph - N/A   Overcast
7:53 PM 53.1 °F - 51.1 °F 93% 30.04 in 8.0 mi Calm Calm - 0.00 in   Overcast
8:53 PM 53.1 °F - 50.0 °F 89% 30.06 in 10.0 mi Calm Calm - N/A   Overcast
9:01 PM 53.6 °F - 50.0 °F 88% 30.04 in 10.0 mi Calm Calm - N/A   Overcast
9:24 PM 53.6 °F - 50.0 °F 88% 30.05 in 10.0 mi Calm Calm - N/A   Overcast
9:53 PM 52.0 °F - 50.0 °F 93% 30.06 in 9.0 mi Calm Calm - N/A   Overcast
10:35 PM 53.6 °F - 50.0 °F 88% 30.06 in 9.0 mi Calm Calm - N/A   Overcast
10:53 PM 53.1 °F - 51.1 °F 93% 30.08 in 7.0 mi Calm Calm - 0.00 in Rain Light Rain
11:53 PM 53.1 °F - 51.1 °F 93% 30.10 in 4.0 mi Calm Calm - 0.03 in Rain Light Rain